GW3562 Weather Reports


Display with metric or nautical units.
time (UTC)temp
F
wind
direction
speed
MPH
gust
MPH
rain 1hr
in
rain 24hr
in
rain mn
in
humidity
%
barometer
mb
20260506201707 45 350 0.0 0.0 0.01 0.91 0.78 96 1010.5
20260506201154 45 350 0.0 0.0 0.02 0.91 0.78 96 1010.5
20260506200736 45 350 0.0 0.0 0.02 0.91 0.78 96 1010.5
20260506195733 45 350 0.0 0.0 0.03 0.99 0.78 96 1010.3
20260506195159 45 350 0.0 0.0 0.03 0.99 0.78 96 1010.2
20260506194700 45 350 0.0 0.0 0.03 0.99 0.78 96 1010.2
20260506194200 45 350 0.0 0.0 0.03 0.99 0.78 96 1010.3
20260506193705 44 350 0.0 0.0 0.03 0.99 0.78 96 1010.3
20260506192706 44 350 0.0 0.0 0.03 0.98 0.77 96 1010.2
20260506192233 44 350 0.0 0.0 0.03 0.98 0.77 96 1010.1
20260506191707 44 349 0.0 0.0 0.03 0.98 0.77 96 1010.1
20260506191159 44 349 0.0 0.0 0.02 0.97 0.76 96 1010.1
20260506190709 44 347 0.0 0.0 0.02 0.97 0.76 96 1010.1
20260506185725 44 347 0.0 0.0 0.02 1.00 0.75 96 1010.3
20260506185213 44 347 0.0 0.0 0.02 1.00 0.75 96 1010.4
20260506184707 44 347 0.0 0.0 0.02 1.00 0.75 96 1010.5
20260506184226 44 347 0.0 0.0 0.03 1.00 0.75 96 1010.5
20260506183654 44 344 0.0 0.0 0.04 1.00 0.75 96 1010.5
20260506182717 44 343 0.0 0.0 0.04 0.99 0.74 96 1010.7
20260506182251 44 343 0.0 0.0 0.05 0.99 0.74 96 1010.7
20260506181721 44 342 0.0 0.0 0.05 0.99 0.74 96 1010.6
20260506181205 44 338 0.0 0.0 0.06 0.99 0.74 96 1010.9
20260506180725 44 338 0.0 0.0 0.06 0.99 0.74 96 1010.9
20260506175735 44 338 0.0 0.0 0.06 0.98 0.73 96 1011.0
20260506175218 44 338 0.0 0.0 0.06 0.98 0.73 96 1011.1
20260506174705 44 339 0.0 0.0 0.06 0.98 0.73 96 1011.1
20260506174158 44 339 0.0 0.0 0.06 0.97 0.72 96 1011.2
20260506173727 44 339 0.0 0.0 0.06 0.96 0.71 96 1011.1
20260506172708 43 338 0.0 0.0 0.06 0.95 0.70 96 1011.2
20260506172154 44 338 0.0 0.0 0.06 0.94 0.69 96 1011.1
20260506171754 44 337 0.0 0.0 0.07 0.94 0.69 96 1011.3
20260506171203 44 337 0.0 5.0 0.06 0.93 0.68 96 1011.2
20260506170705 44 330 0.0 5.0 0.07 0.93 0.68 96 1011.1
20260506165653 44 346 0.0 0.0 0.07 0.92 0.67 96 1011.2
20260506165236 44 346 0.0 0.0 0.08 0.92 0.67 96 1011.3
20260506164706 44 346 0.0 0.0 0.09 0.92 0.67 96 1011.3
20260506164224 44 346 0.0 0.0 0.09 0.91 0.66 96 1011.3
20260506163713 44 346 0.0 3.0 0.09 0.90 0.65 96 1011.3
20260506162733 44 344 0.0 2.0 0.09 0.89 0.64 96 1011.4
20260506162201 44 344 0.0 2.0 0.09 0.88 0.63 96 1011.4
20260506161751 44 344 0.0 0.0 0.08 0.87 0.62 96 1011.6
20260506161200 44 344 0.0 0.0 0.09 0.87 0.62 96 1011.6
20260506160702 44 344 0.0 0.0 0.08 0.86 0.61 96 1011.7
20260506155655 44 343 0.0 3.0 0.08 0.84 0.59 96 1011.7
20260506155212 44 343 0.0 3.0 0.08 0.84 0.59 96 1011.8
20260506154725 44 356 0.0 0.0 0.08 0.83 0.58 96 1012.0
20260506154231 44 358 0.0 0.0 0.08 0.82 0.57 96 1011.9
20260506153649 44 13 0.0 0.0 0.07 0.81 0.56 96 1011.8
20260506152718 44 17 1.0 7.0 0.07 0.80 0.55 96 1011.9
20260506151744 44 356 1.0 5.0 0.07 0.79 0.54 96 1011.6
20260506151207 44 351 0.0 3.0 0.07 0.78 0.53 96 1011.6
20260506150710 44 356 0.0 1.0 0.07 0.78 0.53 96 1011.6
20260506145721 44 357 0.0 0.0 0.06 0.76 0.51 96 1011.4
20260506145208 44 357 0.0 1.0 0.07 0.76 0.51 96 1011.4
20260506144735 44 357 0.0 2.0 0.06 0.75 0.50 96 1011.4
20260506144210 44 357 0.0 3.0 0.06 0.74 0.49 96 1011.4
20260506143659 44 356 0.0 3.0 0.06 0.74 0.49 96 1011.4
20260506142719 44 351 0.0 0.0 0.06 0.73 0.48 96 1011.5
20260506142204 44 350 0.0 0.0 0.05 0.72 0.47 96 1011.6
20260506141700 44 350 0.0 6.0 0.05 0.72 0.47 96 1011.7
20260506141544 44 350 0.0 6.0 0.05 0.72 0.47 96 1011.4
20260506141118 44 350 0.0 6.0 0.04 0.71 0.46 96 1011.8
20260506140621 44 351 0.0 1.0 0.04 0.71 0.46 96 1011.6
20260506140124 44 351 0.0 6.0 0.04 0.70 0.45 96 1011.5
20260506140033 44 351 0.0 6.0 0.04 0.70 0.45 96 1011.2
20260506135643 44 351 0.0 6.0 0.03 0.69 0.44 96 1011.7
20260506135118 44 357 0.0 3.0 0.03 0.69 0.44 96 1011.6
20260506134615 44 358 0.0 3.0 0.04 0.69 0.44 96 1011.4
20260506134547 44 358 0.0 3.0 0.04 0.69 0.44 96 1011.1
20260506134119 44 357 0.0 0.0 0.04 0.68 0.43 96 1011.3
20260506133634 45 351 0.0 0.0 0.06 0.68 0.43 96 1011.4
20260506133133 45 344 0.0 0.0 0.07 0.67 0.42 96 1011.5
20260506133038 45 344 0.0 0.0 0.07 0.67 0.42 96 1011.2
20260506132651 45 344 0.0 0.0 0.07 0.67 0.42 96 1011.6
20260506132119 45 344 0.0 4.0 0.07 0.67 0.42 96 1011.6
20260506131626 45 344 0.0 4.0 0.08 0.67 0.42 96 1011.7
20260506131533 45 344 0.0 4.0 0.08 0.67 0.42 96 1011.2
20260506131122 45 53 0.0 0.0 0.09 0.67 0.42 96 1011.8
20260506130636 45 296 0.0 4.0 0.09 0.67 0.42 96 1011.9
20260506130125 45 349 0.0 0.0 0.09 0.66 0.41 96 1012.1
20260506130101 45 352 0.0 0.0 0.09 0.66 0.41 96 1011.7
20260506125623 46 351 0.0 0.0 0.09 0.67 0.41 96 1012.1
20260506125120 46 351 0.0 0.0 0.10 0.67 0.41 96 1012.1
20260506124637 46 353 0.0 5.0 0.09 0.66 0.40 96 1012.0
20260506124503 46 337 0.0 5.0 0.09 0.66 0.40 96 1011.5
20260506124137 46 337 0.0 5.0 0.08 0.65 0.39 96 1012.3
20260506123622 46 156 0.0 3.0 0.07 0.63 0.37 96 1012.5
20260506123115 46 125 0.0 3.0 0.06 0.61 0.35 96 1011.3
20260506123018 46 124 0.0 3.0 0.06 0.61 0.35 96 1011.5
20260506122615 46 336 0.0 0.0 0.06 0.61 0.35 96 1011.9
20260506122127 46 336 0.0 0.0 0.06 0.60 0.34 96 1012.3
20260506121630 46 336 0.0 0.0 0.06 0.60 0.34 96 1012.3
20260506121555 46 336 0.0 0.0 0.06 0.60 0.34 96 1011.9
20260506121126 46 336 0.0 0.0 0.06 0.59 0.33 96 1012.5
20260506120639 46 335 0.0 0.0 0.06 0.59 0.33 96 1012.5
20260506120119 46 335 0.0 0.0 0.05 0.58 0.32 96 1012.3
20260506120055 46 335 0.0 0.0 0.05 0.57 0.32 96 1011.9
20260506115625 46 335 0.0 0.0 0.05 0.58 0.32 95 1012.5
20260506115131 46 335 0.0 0.0 0.05 0.57 0.31 95 1012.6
20260506114628 46 335 0.0 0.0 0.05 0.57 0.31 95 1012.6
20260506114532 45 335 0.0 0.0 0.05 0.56 0.31 95 1012.1
20260506114126 46 335 0.0 2.0 0.05 0.57 0.31 95 1012.5
20260506113620 46 334 0.0 3.0 0.04 0.56 0.30 95 1012.6
20260506113116 46 328 0.0 3.0 0.03 0.55 0.29 95 1012.8
20260506113044 46 328 0.0 3.0 0.03 0.55 0.28 95 1012.4
20260506112643 46 347 0.0 1.0 0.03 0.55 0.29 95 1012.7
20260506112145 46 349 0.0 2.0 0.02 0.54 0.28 95 1012.6
20260506111621 47 360 0.0 0.0 0.02 0.54 0.28 95 1012.3
20260506111525 46 360 0.0 0.0 0.02 0.54 0.28 95 1011.9
20260506111119 47 360 0.0 1.0 0.01 0.53 0.27 95 1012.0
20260506110625 47 8 0.0 1.0 0.01 0.53 0.27 95 1011.9
20260506110131 47 12 0.0 0.0 0.01 0.53 0.27 95 1011.9
20260506110040 47 12 0.0 0.0 0.01 0.53 0.27 95 1011.4
20260506105627 47 14 0.0 0.0 0.01 0.53 0.27 96 1011.8
20260506105115 48 339 0.0 0.0 0.00 0.52 0.26 95 1011.9
20260506104630 48 339 0.0 3.0 0.02 0.52 0.26 95 1012.0
20260506104540 47 339 0.0 3.0 0.03 0.52 0.26 95 1011.5
20260506104133 47 344 0.0 2.0 0.05 0.52 0.26 95 1011.9
20260506103631 48 344 0.0 0.0 0.05 0.52 0.26 95 1011.9
20260506103028 47 344 0.0 0.0 0.05 0.52 0.26 95 1011.5
20260506102635 48 344 0.0 0.0 0.05 0.52 0.26 95 1012.0
20260506102126 48 344 0.0 0.0 0.05 0.52 0.26 96 1011.6
20260506101626 48 344 0.0 0.0 0.06 0.52 0.26 95 1011.9
20260506101547 47 344 0.0 0.0 0.06 0.52 0.26 95 1011.4
20260506101117 48 344 0.0 0.0 0.06 0.52 0.26 95 1011.8
20260506100629 48 344 0.0 0.0 0.06 0.52 0.26 95 1011.9
20260506100126 48 344 0.0 0.0 0.06 0.52 0.26 95 1012.1
20260506100041 47 344 0.0 0.0 0.06 0.52 0.26 95 1011.5
20260506095625 48 344 0.0 0.0 0.06 0.52 0.26 95 1012.2
20260506095127 48 344 0.0 0.0 0.06 0.52 0.26 96 1011.9
20260506094651 49 344 0.0 3.0 0.06 0.50 0.24 96 1012.3
20260506094559 48 344 0.0 3.0 0.06 0.50 0.24 96 1011.8
20260506093642 49 53 0.0 0.0 0.03 0.47 0.21 96 1012.2
20260506093118 49 53 0.0 0.0 0.03 0.47 0.21 95 1012.0
20260506093052 48 53 0.0 0.0 0.03 0.47 0.21 95 1011.4
20260506092635 49 74 0.0 0.0 0.03 0.47 0.21 95 1012.2
20260506092119 49 74 0.0 3.0 0.06 0.47 0.21 96 1012.4
20260506091658 49 74 0.0 3.0 0.05 0.46 0.20 96 1012.1
20260506091120 49 337 0.0 2.0 0.05 0.46 0.20 96 1012.8
20260506090138 49 340 0.0 0.0 0.05 0.46 0.20 95 1012.2
20260506090103 49 340 0.0 0.0 0.05 0.46 0.20 95 1011.6
20260506085621 50 340 0.0 0.0 0.05 0.46 0.20 95 1012.1
20260506085113 50 340 0.0 0.0 0.06 0.46 0.20 95 1012.4
20260506084636 50 340 0.0 0.0 0.06 0.44 0.18 96 1012.5
20260506084507 49 340 0.0 0.0 0.06 0.44 0.18 96 1011.8
20260506084116 50 340 0.0 0.0 0.06 0.44 0.18 96 1012.4
20260506083613 50 340 0.0 2.0 0.06 0.44 0.18 95 1012.5
20260506083121 50 340 0.0 2.0 0.06 0.44 0.18 95 1012.3
20260506083042 50 340 0.0 2.0 0.06 0.44 0.18 95 1011.7
20260506082638 50 340 0.0 0.0 0.05 0.43 0.17 96 1012.2
20260506082124 50 340 0.0 0.0 0.03 0.41 0.15 96 1012.9
20260506081509 50 339 0.0 0.0 0.03 0.41 0.15 95 1011.8
20260506081118 50 339 0.0 0.0 0.03 0.41 0.15 95 1012.4
20260506080658 51 339 0.0 0.0 0.03 0.41 0.15 95 1012.6
20260506080114 51 339 0.0 0.0 0.03 0.41 0.15 95 1012.4
20260506073121 52 337 0.0 0.0 0.00 0.38 0.12 96 1012.0
20260506073029 51 337 0.0 0.0 0.00 0.38 0.12 96 1011.5
20260506072627 52 337 0.0 0.0 0.00 0.38 0.12 96 1012.2
20260506072116 52 337 0.0 0.0 0.00 0.38 0.12 96 1012.3
20260506071633 52 337 0.0 0.0 0.00 0.38 0.12 96 1011.4
20260506071631 52 337 0.0 0.0 0.00 0.38 0.12 96 1012.0
20260506071142 52 337 0.0 0.0 0.00 0.38 0.12 96 1011.9
20260506070631 52 337 0.0 0.0 0.00 0.38 0.12 96 1011.9
20260506070127 52 337 0.0 0.0 0.00 0.38 0.12 96 1012.0
20260506062141 53 337 0.0 0.0 0.01 0.38 0.12 96 1012.1
20260506061626 53 339 0.0 0.0 0.01 0.38 0.12 96 1012.0
20260506061512 52 339 0.0 0.0 0.01 0.38 0.12 96 1011.3
20260506061154 53 339 0.0 0.0 0.01 0.38 0.12 96 1012.2
20260506060619 53 339 0.0 0.0 0.02 0.38 0.12 96 1012.1
20260506060120 53 339 0.0 0.0 0.04 0.38 0.12 96 1012.2
20260506051111 53 339 0.0 0.0 0.09 0.37 0.11 95 1012.1
20260506050632 53 339 0.0 0.0 0.10 0.36 0.10 95 1012.5
20260506050133 53 339 0.0 0.0 0.08 0.34 0.08 95 1012.3
20260506045131 53 339 0.0 0.0 0.05 0.31 0.05 95 1012.2
20260506044635 53 339 0.0 0.0 0.05 0.30 0.04 95 1012.0
20260506044535 53 339 0.0 0.0 0.05 0.30 0.04 95 1011.3
20260506044148 53 339 0.0 0.0 0.05 0.30 0.04 95 1011.7
20260506043620 53 339 0.0 0.0 0.06 0.30 0.04 95 1011.8
20260506043123 53 339 0.0 0.0 0.06 0.30 0.04 94 1011.7
20260506043044 53 339 0.0 0.0 0.06 0.30 0.04 94 1010.9
20260506042629 53 338 0.0 0.0 0.06 0.29 0.03 94 1011.7
20260506042149 54 338 0.0 0.0 0.06 0.28 0.02 94 1011.9
20260506041652 54 339 0.0 0.0 0.07 0.28 0.02 94 1011.6
20260506041532 53 339 0.0 0.0 0.07 0.28 0.02 94 1011.0
20260506041129 54 339 0.0 0.0 0.08 0.28 0.02 94 1012.1
20260506040621 54 339 0.0 0.0 0.07 0.26 0.00 94 1012.0
20260506040124 54 339 0.0 0.0 0.07 0.26 0.00 93 1012.1
20260506040042 53 339 0.0 0.0 0.08 0.26 0.00 93 1011.5
20260506035630 54 339 0.0 0.0 0.08 0.26 0.26 93 1012.0
20260506035124 54 339 0.0 0.0 0.08 0.26 0.26 93 1012.0
20260506034630 54 339 0.0 0.0 0.07 0.25 0.25 93 1012.0
20260506034604 54 339 0.0 0.0 0.07 0.25 0.25 93 1011.3
20260506034116 54 339 0.0 0.0 0.07 0.25 0.25 92 1012.1
20260506033626 54 339 0.0 0.0 0.06 0.24 0.24 92 1012.0
20260506033142 55 339 0.0 0.0 0.05 0.23 0.23 91 1011.6
20260506033006 54 339 0.0 0.0 0.05 0.23 0.23 91 1011.0
20260506032130 56 339 0.0 0.0 0.04 0.22 0.22 89 1011.8
20260506031613 56 339 0.0 0.0 0.03 0.21 0.21 88 1011.5
20260506031512 56 339 0.0 2.0 0.03 0.21 0.21 87 1010.8
20260506031138 57 339 0.0 2.0 0.02 0.20 0.20 85 1011.5
20260506030630 57 338 0.0 0.0 0.01 0.19 0.19 83 1011.4
20260506030130 58 338 0.0 1.0 0.00 0.18 0.18 82 1011.1
20260506030025 57 338 0.0 6.0 0.00 0.18 0.18 82 1010.5
20260506025632 58 338 0.0 9.0 0.00 0.18 0.18 80 1011.2
20260506025128 59 339 4.0 9.0 0.00 0.18 0.18 78 1010.9
20260506024623 60 302 0.0 7.0 0.00 0.18 0.18 78 1010.8
20260506024533 59 343 0.0 7.0 0.00 0.18 0.18 77 1010.2
20260506024121 60 349 3.0 8.0 0.00 0.18 0.18 77 1011.0
20260506023131 61 358 2.0 12.0 0.00 0.18 0.18 83 1010.7
20260506023032 60 341 0.0 12.0 0.00 0.18 0.18 84 1010.0
20260506022625 61 351 4.0 12.0 0.00 0.18 0.18 83 1010.6
20260506022124 60 345 1.0 5.0 0.00 0.18 0.18 83 1010.5
20260506021617 60 275 0.0 0.0 0.00 0.18 0.18 84 1010.1
20260506021547 60 275 0.0 0.0 0.00 0.18 0.18 83 1009.4
20260506021138 60 273 0.0 0.0 0.00 0.18 0.18 83 1009.9
20260506020638 60 273 0.0 0.0 0.00 0.18 0.18 84 1010.0
20260506020142 60 273 0.0 0.0 0.00 0.18 0.18 84 1010.0
20260506020042 60 273 0.0 0.0 0.00 0.18 0.18 85 1009.3
20260506015640 60 273 0.0 0.0 0.00 0.18 0.18 84 1009.9
20260506015135 60 274 0.0 0.0 0.00 0.18 0.18 85 1010.1
20260506014653 60 274 0.0 0.0 0.00 0.18 0.18 85 1010.2
20260506014551 60 274 0.0 0.0 0.00 0.18 0.18 85 1009.6
20260506014157 60 274 0.0 0.0 0.00 0.18 0.18 84 1010.2
20260506013647 61 274 0.0 0.0 0.00 0.18 0.18 84 1010.1
20260506013151 61 274 0.0 0.0 0.00 0.18 0.18 83 1010.0
20260506013101 60 274 0.0 0.0 0.00 0.18 0.18 83 1009.3
20260506012644 61 274 0.0 0.0 0.00 0.18 0.18 83 1009.9
20260506012204 61 274 0.0 0.0 0.00 0.18 0.18 82 1009.6
20260506011705 62 274 0.0 0.0 0.00 0.18 0.18 80 1009.4
20260506011518 61 274 0.0 0.0 0.00 0.18 0.18 80 1008.6
20260506011135 62 274 0.0 0.0 0.00 0.18 0.18 80 1009.2
20260506010640 62 274 0.0 0.0 0.00 0.18 0.18 79 1008.9
20260506010156 62 274 0.0 0.0 0.00 0.18 0.18 79 1009.0
20260506005650 62 273 0.0 5.0 0.00 0.18 0.18 79 1009.1
20260506005148 62 273 0.0 5.0 0.00 0.18 0.18 78 1009.1
20260506004639 63 277 0.0 0.0 0.00 0.18 0.18 79 1008.9
20260506004557 62 277 0.0 0.0 0.00 0.18 0.18 79 1008.3
20260506004200 63 277 0.0 3.0 0.00 0.18 0.18 78 1009.0
20260506003651 62 276 0.0 4.0 0.00 0.18 0.18 78 1008.9
20260506003135 62 261 0.0 0.0 0.00 0.18 0.18 79 1009.0
20260506003052 62 259 0.0 0.0 0.00 0.18 0.18 79 1008.3
20260506002639 62 259 0.0 0.0 0.00 0.18 0.18 79 1008.9
20260506002138 62 256 0.0 0.0 0.00 0.18 0.18 81 1008.7
20260506001656 62 255 0.0 0.0 0.00 0.18 0.18 79 1008.8
20260506001505 62 255 0.0 0.0 0.00 0.18 0.18 79 1008.1
20260506001223 62 254 0.0 0.0 0.00 0.18 0.18 79 1008.7
20260506000710 62 242 0.0 0.0 0.00 0.18 0.18 80 1008.6
20260506000226 62 242 0.0 0.0 0.00 0.18 0.18 80 1008.5
20260506000037 62 242 0.0 0.0 0.00 0.18 0.18 80 1007.8
20260505235700 62 242 0.0 0.0 0.00 0.18 0.18 81 1008.5
20260505235201 62 242 0.0 0.0 0.00 0.18 0.18 81 1008.5
20260505234607 62 241 0.0 0.0 0.00 0.18 0.18 81 1007.8
20260505234214 62 278 0.0 0.0 0.00 0.18 0.18 80 1008.6
20260505233723 63 278 0.0 3.0 0.00 0.18 0.18 81 1008.6
20260505233221 63 279 0.0 3.0 0.00 0.18 0.18 80 1008.5
20260505233019 62 279 0.0 3.0 0.00 0.18 0.18 80 1007.8
20260505232649 63 290 0.0 2.0 0.00 0.18 0.18 80 1008.6
20260505232156 63 280 0.0 1.0 0.00 0.18 0.18 80 1008.6
20260505231714 63 286 0.0 0.0 0.00 0.18 0.18 80 1008.3
20260505231534 63 294 0.0 0.0 0.00 0.18 0.18 80 1007.6
20260505231211 63 292 0.0 4.0 0.00 0.18 0.18 79 1008.1
20260505230711 63 287 0.0 4.0 0.00 0.18 0.18 80 1008.1
20260505230206 63 227 0.0 4.0 0.00 0.18 0.18 81 1008.0
20260505230031 63 227 0.0 4.0 0.00 0.18 0.18 81 1007.2
20260505225654 63 226 0.0 4.0 0.00 0.18 0.18 80 1007.9
20260505225222 63 153 0.0 2.0 0.00 0.18 0.18 81 1008.0
20260505224656 63 35 0.0 2.0 0.00 0.18 0.18 84 1008.0
20260505224528 62 35 0.0 2.0 0.00 0.18 0.18 84 1007.2
20260505224207 62 329 0.0 1.0 0.00 0.18 0.18 84 1008.0
20260505223718 62 51 0.0 0.0 0.00 0.18 0.18 85 1007.8
20260505223200 62 52 0.0 0.0 0.00 0.18 0.18 85 1007.9
20260505223033 62 52 0.0 0.0 0.00 0.18 0.18 85 1007.1
20260505222741 62 130 0.0 0.0 0.00 0.18 0.18 84 1008.1
20260505222153 62 73 0.0 0.0 0.00 0.18 0.18 87 1008.4
20260505221702 62 67 0.0 1.0 0.00 0.18 0.18 87 1008.4
20260505221521 61 67 0.0 1.0 0.00 0.18 0.18 87 1007.6
20260505221202 62 69 0.0 1.0 0.00 0.18 0.18 87 1008.1
20260505220703 62 212 0.0 0.0 0.00 0.18 0.18 88 1008.0
20260505220232 62 207 0.0 0.0 0.00 0.18 0.18 89 1007.9
20260505220009 61 207 0.0 0.0 0.00 0.18 0.18 89 1007.1
20260505215657 62 206 0.0 0.0 0.00 0.18 0.18 88 1007.6
20260505215215 62 206 0.0 0.0 0.00 0.18 0.18 88 1007.7
20260505214729 62 199 0.0 0.0 0.00 0.18 0.18 88 1007.6
20260505214539 61 199 0.0 0.0 0.00 0.18 0.18 89 1007.0
20260505214205 62 199 0.0 0.0 0.00 0.18 0.18 89 1007.8
20260505213659 62 195 0.0 0.0 0.00 0.18 0.18 88 1008.0
20260505213202 62 190 0.0 0.0 0.00 0.18 0.18 88 1007.9
20260505213026 61 190 0.0 0.0 0.00 0.18 0.18 88 1007.2
20260505212708 62 190 0.0 3.0 0.01 0.18 0.18 87 1008.0
20260505212210 62 289 0.0 3.0 0.01 0.18 0.18 87 1007.9
20260505211709 62 308 0.0 0.0 0.01 0.18 0.18 88 1007.8
20260505211540 61 308 0.0 0.0 0.01 0.18 0.18 87 1006.9
20260505211211 62 309 0.0 0.0 0.05 0.18 0.18 89 1007.7
20260505210654 62 309 0.0 0.0 0.05 0.18 0.18 89 1007.4
20260505210211 62 311 0.0 0.0 0.05 0.18 0.18 88 1007.7
20260505205656 62 317 0.0 0.0 0.05 0.18 0.18 89 1007.7
20260505205218 62 317 0.0 0.0 0.05 0.18 0.18 89 1007.4
20260505204705 62 318 0.0 0.0 0.05 0.18 0.18 88 1007.6
20260505204522 61 318 0.0 0.0 0.05 0.18 0.18 87 1006.7
20260505204207 62 318 0.0 0.0 0.05 0.18 0.18 88 1007.6
20260505203708 62 318 0.0 0.0 0.05 0.18 0.18 87 1007.5
20260505203204 62 319 0.0 0.0 0.05 0.18 0.18 87 1007.4
20260505203032 62 319 0.0 1.0 0.05 0.18 0.18 88 1006.5
20260505202705 62 319 0.0 5.0 0.04 0.17 0.17 89 1007.4
20260505202205 62 343 2.0 5.0 0.04 0.17 0.17 87 1007.5